Location: Geçitköy
(36.7327°N, 29.8010°E)
Time: 20:12:15
(UTC+00:00)

NOSS 3-4 (A) - Pass Details

Date: 12 January 2026
Orbit: 769 x 1442 km, 63.4° (Epoch: 10 January)

Event Time Altitude Azimuth Distance (km) Brightness Sun altitude
Rises 15:40:51 0° 196° (SSW) 3,236 6.8 -7.4°
Reaches altitude 10° 15:43:16 10° 192° (SSW) 2,300 6.0 -7.8°
Maximum altitude 15:48:16 51° 116° (ESE) 971 3.3 -8.7°
Drops below altitude 10° 15:53:33 10° 42° (NE) 2,427 5.1 -9.7°
Enters shadow 15:54:00 - 41° (NE) 2,597 5.2 -9.8°
